When you browse on this site, cookies collect data to enhance your experience and personalize the content and advertising you see.
Visit our Privacy Policy to learn more. By continuing to use the site, you agree to this use of cookies and data.

Hourly Weather Malanje

Today, 20 September, Sunday

Time Temperature Precipitation Wind Pressure Humidity
00:00 +21°C° 0 mm 3 mps 665 mmHg 86%
01:00 +21°C° 0 mm 3 mps 664 mmHg 87%
02:00 +20°C° 0.1 mm 3 mps 664 mmHg 86%
03:00 +20°C° 0.1 mm 3 mps 664 mmHg 86%
04:00 +20°C° 0.1 mm 3 mps 664 mmHg 85%
05:00 +20°C° 0.1 mm 3 mps 664 mmHg 85%
06:00 +20°C° 0.1 mm 2 mps 665 mmHg 85%
07:00 +20°C° 0.1 mm 2 mps 665 mmHg 84%
08:00 +24°C° 0 mm 2 mps 666 mmHg 73%
09:00 +27°C° 0 mm 2 mps 666 mmHg 62%
10:00 +30°C° 0 mm 2 mps 667 mmHg 50%
11:00 +32°C° 0 mm 1 mps 666 mmHg 44%
12:00 +34°C° 0 mm 1 mps 666 mmHg 38%
13:00 +36°C° 0 mm 1 mps 666 mmHg 32%
14:00 +35°C° 0 mm 1 mps 665 mmHg 34%
15:00 +34°C° 0 mm 2 mps 664 mmHg 36%
16:00 +32°C° 0 mm 2 mps 663 mmHg 38%
17:00 +30°C° 0.3 mm 2 mps 663 mmHg 45%
18:00 +28°C° 0.3 mm 2 mps 664 mmHg 52%
19:00 +27°C° 0.3 mm 1 mps 664 mmHg 58%
20:00 +26°C° 0.6 mm 2 mps 664 mmHg 64%
21:00 +25°C° 0.6 mm 2 mps 664 mmHg 69%
22:00 +24°C° 0.6 mm 2 mps 665 mmHg 74%
23:00 +24°C° 0.1 mm 2 mps 664 mmHg 78%

Tomorrow, 21 September, Monday

Time Temperature Precipitation Wind Pressure Humidity
00:00 +22°C° 0.1 mm 3 mps 664 mmHg 82%
01:00 +21°C° 0.1 mm 3 mps 664 mmHg 85%
02:00 +21°C° 0.1 mm 3 mps 664 mmHg 85%
03:00 +21°C° 0.1 mm 3 mps 664 mmHg 85%
04:00 +20°C° 0.1 mm 3 mps 663 mmHg 85%
05:00 +20°C° 0 mm 3 mps 664 mmHg 84%
06:00 +20°C° 0 mm 3 mps 664 mmHg 83%
07:00 +20°C° 0 mm 3 mps 665 mmHg 81%
08:00 +22°C° 0 mm 3 mps 666 mmHg 75%
09:00 +25°C° 0 mm 3 mps 666 mmHg 68%
10:00 +26°C° 0 mm 3 mps 667 mmHg 62%
11:00 +28°C° 0 mm 3 mps 666 mmHg 56%
12:00 +30°C° 0 mm 3 mps 666 mmHg 50%
13:00 +33°C° 0 mm 3 mps 666 mmHg 43%
14:00 +31°C° 0 mm 3 mps 665 mmHg 44%
15:00 +31°C° 0 mm 3 mps 665 mmHg 45%
16:00 +30°C° 0 mm 3 mps 664 mmHg 46%
17:00 +29°C° 0 mm 3 mps 664 mmHg 52%
18:00 +27°C° 0 mm 3 mps 665 mmHg 59%
19:00 +26°C° 0 mm 4 mps 665 mmHg 65%
20:00 +25°C° 0.5 mm 3 mps 665 mmHg 70%
21:00 +24°C° 0.5 mm 2 mps 666 mmHg 75%
22:00 +23°C° 0.5 mm 1 mps 666 mmHg 80%
23:00 +21°C° 0.1 mm 2 mps 666 mmHg 81%

Day after tomorrow, 22 September, Tuesday

Time Temperature Precipitation Wind Pressure Humidity
00:00 +21°C° 0.1 mm 3 mps 666 mmHg 81%
01:00 +21°C° 0.1 mm 3 mps 666 mmHg 82%
02:00 +20°C° 0.1 mm 3 mps 665 mmHg 84%
03:00 +19°C° 0.1 mm 3 mps 665 mmHg 86%
04:00 +19°C° 0.1 mm 3 mps 664 mmHg 88%
05:00 +19°C° 0 mm 3 mps 665 mmHg 87%
06:00 +19°C° 0 mm 3 mps 665 mmHg 86%
07:00 +19°C° 0 mm 3 mps 666 mmHg 85%
08:00 +21°C° 0 mm 3 mps 666 mmHg 76%
09:00 +24°C° 0 mm 3 mps 667 mmHg 67%
10:00 +26°C° 0 mm 3 mps 668 mmHg 58%
11:00 +28°C° 0 mm 3 mps 667 mmHg 53%
12:00 +30°C° 0 mm 3 mps 667 mmHg 48%
13:00 +31°C° 0 mm 3 mps 666 mmHg 43%
14:00 +31°C° 0 mm 3 mps 666 mmHg 43%
15:00 +31°C° 0 mm 3 mps 665 mmHg 43%
16:00 +30°C° 0 mm 3 mps 665 mmHg 43%
17:00 +29°C° 0 mm 3 mps 665 mmHg 48%
18:00 +27°C° 0 mm 3 mps 666 mmHg 53%
19:00 +25°C° 0 mm 4 mps 666 mmHg 58%
20:00 +24°C° 0 mm 3 mps 666 mmHg 61%
21:00 +24°C° 0 mm 2 mps 666 mmHg 64%
22:00 +23°C° 0 mm 2 mps 666 mmHg 67%
23:00 +21°C° 0.2 mm 2 mps 666 mmHg 69%

23 September, Wednesday

Time Temperature Precipitation Wind Pressure Humidity
00:00 +21°C° 0.2 mm 3 mps 666 mmHg 71%
01:00 +20°C° 0.2 mm 3 mps 666 mmHg 73%
02:00 +20°C° 0 mm 3 mps 666 mmHg 76%
03:00 +20°C° 0 mm 3 mps 665 mmHg 78%
04:00 +19°C° 0 mm 2 mps 665 mmHg 80%
05:00 +19°C° 0.1 mm 2 mps 665 mmHg 78%
06:00 +20°C° 0.1 mm 3 mps 666 mmHg 76%
07:00 +20°C° 0.1 mm 3 mps 666 mmHg 74%
08:00 +22°C° 0 mm 3 mps 667 mmHg 65%
09:00 +26°C° 0 mm 3 mps 667 mmHg 56%
10:00 +28°C° 0 mm 2 mps 668 mmHg 47%
11:00 +31°C° 0 mm 2 mps 667 mmHg 42%
12:00 +33°C° 0 mm 1 mps 667 mmHg 37%
13:00 +35°C° 0 mm 1 mps 667 mmHg 32%
14:00 +34°C° 0 mm 1 mps 666 mmHg 34%
15:00 +32°C° 0 mm 1 mps 666 mmHg 36%
16:00 +31°C° 0 mm 2 mps 665 mmHg 38%
17:00 +29°C° 0.5 mm 2 mps 665 mmHg 46%
18:00 +27°C° 0.5 mm 3 mps 665 mmHg 53%
19:00 +25°C° 0.5 mm 3 mps 666 mmHg 61%
20:00 +24°C° 0.1 mm 3 mps 666 mmHg 64%
21:00 +22°C° 0.1 mm 3 mps 666 mmHg 67%
22:00 +22°C° 0.1 mm 3 mps 666 mmHg 70%
23:00 +21°C° 0 mm 3 mps 666 mmHg 73%

24 September, Thursday

Time Temperature Precipitation Wind Pressure Humidity
00:00 +21°C° 0 mm 3 mps 665 mmHg 75%
01:00 +20°C° 0 mm 3 mps 665 mmHg 77%
02:00 +20°C° 0 mm 3 mps 665 mmHg 81%
03:00 +19°C° 0 mm 3 mps 664 mmHg 84%
04:00 +18°C° 0 mm 3 mps 664 mmHg 87%
05:00 +18°C° 0 mm 3 mps 665 mmHg 86%
06:00 +18°C° 0 mm 3 mps 665 mmHg 85%
07:00 +19°C° 0 mm 3 mps 666 mmHg 84%
08:00 +21°C° 0 mm 3 mps 666 mmHg 74%
09:00 +25°C° 0 mm 2 mps 667 mmHg 64%
10:00 +27°C° 0 mm 2 mps 668 mmHg 54%
11:00 +29°C° 0 mm 2 mps 667 mmHg 47%
12:00 +32°C° 0 mm 2 mps 667 mmHg 41%
13:00 +34°C° 0 mm 1 mps 666 mmHg 34%
14:00 +34°C° 0 mm 1 mps 666 mmHg 33%
15:00 +33°C° 0 mm 1 mps 665 mmHg 32%
16:00 +33°C° 0 mm 1 mps 664 mmHg 31%
17:00 +31°C° 0 mm 2 mps 664 mmHg 37%
18:00 +29°C° 0 mm 2 mps 664 mmHg 42%
19:00 +27°C° 0 mm 3 mps 664 mmHg 48%
20:00 +26°C° 0 mm 3 mps 665 mmHg 52%
21:00 +25°C° 0 mm 3 mps 665 mmHg 55%
22:00 +24°C° 0 mm 3 mps 665 mmHg 59%
23:00 +21°C° 0 mm 3 mps 665 mmHg 66%

25 September, Friday

Time Temperature Precipitation Wind Pressure Humidity
00:00 +20°C° 0 mm 3 mps 665 mmHg 73%
01:00 +19°C° 0 mm 4 mps 664 mmHg 81%
02:00 +19°C° 0 mm 3 mps 664 mmHg 82%
03:00 +19°C° 0 mm 3 mps 664 mmHg 83%
04:00 +18°C° 0 mm 3 mps 664 mmHg 84%
05:00 +18°C° 0 mm 3 mps 665 mmHg 82%
06:00 +18°C° 0 mm 3 mps 665 mmHg 80%
07:00 +19°C° 0 mm 3 mps 665 mmHg 78%
08:00 +22°C° 0 mm 3 mps 666 mmHg 66%
09:00 +25°C° 0 mm 3 mps 667 mmHg 54%
10:00 +28°C° 0 mm 2 mps 667 mmHg 42%
11:00 +30°C° 0 mm 2 mps 667 mmHg 38%
12:00 +32°C° 0 mm 2 mps 666 mmHg 34%
13:00 +35°C° 0 mm 2 mps 665 mmHg 30%
14:00 +35°C° 0 mm 2 mps 665 mmHg 30%
15:00 +35°C° 0 mm 2 mps 664 mmHg 29%
16:00 +34°C° 0 mm 2 mps 664 mmHg 29%
17:00 +31°C° 0 mm 3 mps 664 mmHg 35%
18:00 +29°C° 0 mm 3 mps 664 mmHg 41%
19:00 +26°C° 0 mm 4 mps 664 mmHg 47%
20:00 +25°C° 0 mm 3 mps 664 mmHg 49%
21:00 +24°C° 0 mm 3 mps 664 mmHg 52%
22:00 +24°C° 0 mm 3 mps 665 mmHg 55%
23:00 +22°C° 0 mm 3 mps 664 mmHg 62%
Show more